1st Responders/1st Detectors/Storm Spotters Weather Summary for Cumberland County, KY

Forecast Maps


Reg. NEXRAD Animation


National Fire Danger: Day 1 & 2 Map

Current NWS Watch/Warnings

SPC Convective Day 1 Outlook


Day 2 Outlook

(Click images to enlarge|Page will refresh every 5 minutes)
UK Ag. Weather Center Desktop Severe Weather Service[HERE]
Cumberland County, KY Hazardous Weather Outlook Webcast
(9 AM to 9 PM Mon-Fri)
[Fast]
[Dial-up]


UKAWC 1st Detectors/1st Responders Precision Weather Forecast For CUMBERLAND County, Kentucky
(based on the NWS County Digital Forecast)

ISSUED AT 14:00 UTC ON SUNDAY JUL 22 2018
DAY SUNDAY
CDT 3HR 10A 11A NOON 1P 2P 3P 4P 5P 6P
MAX/MIN -- -- -- -- -- -- -- -- 79°
TEMP 74° 76° 79° 79° 79° 79° 76° 76° 76°
SKY COVER 91% 90% 90% 83% 82% 74% 80% 81% 87%
Clouds
DEW PT 67° 67° 67° 68° 67° 68° 68° 68° 68°
RH 78% 76% 69% 68% 67% 71% 76% 76% 79%
POP 12HR -- -- -- -- -- -- -- -- --
RAIN/SNOW (liq.equ) -- -- -- 0.03in -- -- -- -- --
SNOWFALL -- -- -- 0in -- -- -- -- --
WIND SPEED(MPH) 7 7 7 7 7 7 6 6 6
WIND Gust(MPH) 8 8 8 10 8 8 7 7 7
WIND DIR W W W W W W W W W
DEW -- Lgt Dew -- -- -- -- Lgt Dew Lgt Dew Lgt Dew
HeatIndex 74 76 79 82 82 79 76 76 76
Rain Showers Chance Chance Chance Chance Chance Chance Chance Likely Likely
Thunder Storm Slight Chance Slight Chance Slight Chance Slight Chance Slight Chance Slight Chance Slight Chance Slight Chance Slight Chance
WIND CHILL -- -- -- -- -- -- -- -- --
SPRAY COND
DRY COND
LIVESTOCK HEATSTRESS 72.16 73.73 75.56 75.44 75.33 75.78 73.73 73.73 74.01



DAY MONDAY TUESDAY WEDNESDAY THURSDAY FRIDAY SATURDAY
CDT 6HR 7P 8P 9P 10P 11P MIDN 1A 2A 3A 4A 5A 6A 7A 8A 9A 10A 11A NOON 1P 2P 3P 4P 5P 6P 7P 8P 9P 10P 1A 4A 7A 10A 1P 4P 7P 1A 7A 1P 7P 1A 7A 1P 7P 1A 7A 1P 7P 1A 7A 1P 7P
MAX/MIN -- -- -- -- -- -- -- -- -- -- -- -- 65° -- -- -- -- -- -- -- -- -- -- 83° -- -- -- -- -- -- 65° -- -- 86° -- -- 67° 86° -- -- 67° 88° -- -- 67° 88° -- -- 65° 88° --
TEMP 74° 72° 72° 70° 68° 67° 67° 67° 65° 65° 65° 65° 67° 68° 70° 72° 76° 77° 79° 81° 83° 83° 83° 81° 79° 76° 72° 70° 68° 65° 67° 79° 85° 86° 81° 70° 68° 85° 81° 70° 68° 88° 83° 70° 68° 88° 81° 68° 68° 86° 81°
SKY COVER 82% 84% 86% 88% 89% 90% 91% 91% 92% 92% 93% 93% 93% 93% 92% 91% 90% 88% 86% 84% 80% 78% 77% 76% 76% 73% 67% 64% 66% 71% 69% 74% 72% 71% 74% 65% 65% 64% 45% 26% 28% 23% 24% 25% 40% 51% 51% 50% 52% 56% 59%
Clouds
DEW PT 68° 68° 68° 68° 67° 67° 67° 67° 65° 65° 65° 65° 67° 67° 67° 67° 67° 68° 68° 68° 68° 68° 68° 70° 70° 68° 68° 67° 67° 65° 67° 70° 70° 70° 72° 70° 68° 72° 72° 70° 68° 68° 70° 67° 67° 68° 70° 67° 67° 68° 70°
RH 81% 87% 90% 96% 96% 99% 100% 100% 100% 99% 100% 100% 96% 93% 90% 84% 76% 73% 68% 64% 60% 60% 63% 69% 73% 78% 87% 90% 97% 100% 100% 73% 62% 59% 72% 96% 100% 62% 74% 96% 100% 53% 67% 90% 93% 53% 67% 93% 93% 55% 72%
POP 12HR 59% -- -- -- -- -- -- -- -- -- -- -- 61% -- -- -- -- -- -- -- -- -- -- -- 50% -- -- -- -- -- 16% -- -- -- 60% -- 32% -- 50% -- 10% -- 8% -- 7% -- 19% -- 20% -- 26%
RAIN/SNOW (liq.equ) 0.13in -- -- -- -- -- 0.09in -- -- -- -- -- 0.00in -- -- -- -- -- 0.02in -- -- -- -- -- 0.04in -- -- -- 0.01in -- 0.00in -- 0.01in -- 0.09in -- -- -- -- -- -- -- -- -- -- -- -- -- -- -- --
SNOWFALL 0in -- -- -- -- -- 0in -- -- -- -- -- 0in -- -- -- -- -- 0in -- -- -- -- -- 0in -- -- -- 0in -- 0in -- 0in -- 0in -- -- -- -- -- -- -- -- -- -- -- -- -- -- -- --
WIND SPEED(MPH) 5 5 2 2 2 1 1 1 1 1 1 2 2 2 2 5 5 6 6 7 7 6 6 6 5 5 2 1 1 1 0 2 6 5 2 0 0 5 2 0 1 6 5 0 0 5 5 1 0 5 2
WIND DIR NW NW NW W NW NW NW NW NW NW NW N N N N N N N N N N N N N N N N N N N N N N N N N N N N N NW N N SE NE NW N NE NE W N
HeatIndex 74 72 72 70 68 67 67 67 65 65 65 65 67 68 70 72 76 77 82 85 87 87 86 84 79 76 72 70 68 65 67 79 90 92 86 70 68 92 85 70 68 92 87 70 68 92 85 68 68 91 85
Rain Showers Likely Likely Likely Likely Chance Chance -- -- -- Slight Chance Slight Chance Slight Chance Chance Chance Chance Chance Chance Chance Chance Chance Chance Chance Chance Chance Slight Chance Slight Chance Slight Chance Slight Chance -- -- Chance Chance Likely Likely Chance Slight Chance Chance Chance -- -- -- -- -- -- -- Slight Chance Slight Chance -- Slight Chance Chance Slight Chance
Thunder Storm Slight Chance Slight Chance Slight Chance Slight Chance Slight Chance Slight Chance -- -- -- -- -- -- Chance Chance Chance Chance Chance Chance Chance Chance Chance Chance Chance Chance -- -- -- -- -- -- Chance Chance Chance Chance Slight Chance -- Chance Chance -- -- -- -- -- -- -- Slight Chance -- -- -- Slight Chance --
WIND CHILL -- -- -- -- -- -- -- -- -- -- -- -- -- -- -- -- -- -- -- -- -- -- -- -- -- -- -- -- -- -- -- -- -- -- -- -- -- -- -- -- -- -- -- -- -- -- -- -- -- -- --
SPRAY COND
DRY COND
LIVESTOCK HEATSTRESS 72.41 71.06 71.27 69.75 67.80 66.95 67.00 67.00 65.00 64.97 65.00 65.00 66.82 67.65 69.38 70.84 73.73 74.30 75.44 76.60 77.68 77.68 78.08 77.21 76.00 73.92 71.06 69.38 67.85 65.00 67.00 76.00 79.52 79.87 77.58 69.75 68.00 79.52 77.83 69.75 68.00 80.45 78.61 69.38 67.65 80.45 76.97 67.65 67.65 79.27 77.58

Click on individual weather variable above in left-hand column (ie., TEMP, RH, QPF 12HR) to view state forecast maps






NWS 48 Hr. Forecast Maps,

Regional Hourly Observations For CUMBERLAND County, Kentucky
Issued at 1000 AM EDT SUN JUL 22 2018
SOUTHEAST KENTUCKY
  
CITY           SKY/WX    TMP DP  RH WIND       PRES   REMARKS
JACKSON        CLOUDY    70  66  87 MISG      29.76R                  
LONDON         CLOUDY    71  66  84 W8        29.78R                  
SOMERSET       CLOUDY    70  68  94 W5        29.79R                  
MIDDLESBORO    CLOUDY    73  66  79 CALM      29.79S                  
MONTICELLO     CLOUDY    69  67  93 W15       29.81R                  


Current NOWCAST not available:
Nowcasts are not issued routinely during fair weather. Only when
precipitation or other significant weather is occuring in this county will these
forecasts be issued. Currently, there is no short term forecast in effect.


Fire Weather Forecast For CUMBERLAND County, KY
Provided by the National Weather Service:

Issued at: Sun Jul 22 10:05:01 EDT 2018


                      Today        Tonight      Mon          

CLOUD COVER           MCldy        MCldy        MCldy        
PRECIP TYPE           tstms        tstms        tstms        
CHANCE PRECIP (%)     60           60           50           
TEMP (24H TREND)      78 (-4)      65 (-1)      82           
RH % (24H TREND)      68 (+8)      100 (+1)     63           
20FTWND-VAL/AM(MPH)   W  6                      Lgt/Var      
20FTWND-RDG/PM(MPH)   W  6         Lgt/Var      Lgt/Var      
PRECIP AMOUNT         0.23         0.11         0.06         
MIXING HGT(FT-AGL/MSL)3826                      4257         
TRANSPORT WND (MPH)   W 13                      N  9         
VENT RATE (KT-FT)     53564                     34587        
DISPERSION            Good                      Marginal     
DSI                   SLGT UNSTBL  SLGT UNSTBL  STBL         
LAL                   3            2            3            
HAINES INDEX          3            3            3            
ADI EARLY             24 FAIR      5 VERY POOR  10 POOR      
ADI LATE              28 FAIR      1 VERY POOR  22 FAIR      
MAX LVORI EARLY       6            8            9            
MAX LVORI LATE        3            10           4            

REMARKS...ADI IS ATMOSPHERIC DISPERSION INDEX BY LAVDAS.        
LVORI IS LOW VISIBILITY OCCURRENCE RISK INDEX.

.TUESDAY...Mostly cloudy with a 50 percent chance of showers and
thunderstorms. Lows in the mid 60s. Highs in the mid 80s. Light
winds. 
.WEDNESDAY...Mostly cloudy. A 50 percent chance of showers and
thunderstorms. Lows in the upper 60s. Highs in the mid 80s. North
winds up to 5 mph. 
.THURSDAY...Partly cloudy. Lows in the upper 60s. Highs in the
upper 80s. Northwest winds up to 5 mph. 
.FRIDAY...Partly cloudy. Lows in the upper 60s. Highs in the mid
80s. North winds up to 5 mph. 
.SATURDAY...Mostly cloudy. Chance of showers. Lows in the mid
60s. Highs in the mid 80s. Northwest winds up to 5 mph. 

SPC's Fire Weather Web Tool (Excellent!), SPC's Fire Weather Outlooks, NWS Fire Weather WEB, Fire Danger Class Map,
Keetch-Byram Drought Index, ROMAN Web, Haines Index ,
WFAS's 10-hr Dead Fuel Moist., WFAS's 100-hr Dead Fuel Moist., Probablity of Ignition, Visual blackness Map, Palmer Drought Index, HPC's Rainfall Forecast Maps


Hazardous Weather Outlook For CUMBERLAND County, Kentucky
350 AM EDT Sun Jul 22 2018 /250 AM CDT Sun Jul 22 2018/

 DAY ONE  Today and Tonight.

No hazardous weather is expected. 

 DAYS TWO THROUGH SEVEN  Monday through Saturday.

Isolated to scattered afternoon and evening storms are expected each
day through the next work week as the weather pattern remains 
unsettled.

 SPOTTER INFORMATION STATEMENT  

Spotter activation is not anticipated.

Latest CUMBERLAND County, Kentucky Watches, Warnings and Advisories.
Additional Drought Info.: UKAWC Drought Page, Kentucky Drought Watch


7-Day Forecast For CUMBERLAND County, KY

TODAY
Mostly cloudy with chance of showers and slight chance of thunderstorms. Highs around 80. West winds 5 to 10 mph. Chance of precipitation 50 percent.

TONIGHT
Showers likely and slight chance of thunderstorms. Lows in the mid 60s. Northwest winds up to 5 mph. Chance of precipitation 60 percent.

MONDAY
Cloudy with a 50 percent chance of showers and thunderstorms. Highs in the lower 80s. North winds up to 5 mph.

MONDAY NIGHT
Partly cloudy with a 20 percent chance of showers. Lows in the mid 60s. North winds up to 5 mph.

TUESDAY
Showers likely and chance of thunderstorms. Highs in the upper 80s. North winds up to 5 mph. Chance of precipitation 60 percent.

TUESDAY NIGHT
Partly cloudy with chance of showers and slight chance of thunderstorms. Lows in the upper 60s. Chance of precipitation 50 percent.

WEDNESDAY
Partly cloudy with a 50 percent chance of showers and thunderstorms. Highs in the upper 80s.

WEDNESDAY NIGHT
Partly cloudy. Lows in the upper 60s.

THURSDAY
Mostly sunny. Highs in the upper 80s.

THURSDAY NIGHT
Mostly clear. Lows in the upper 60s.

FRIDAY
Partly cloudy with a 20 percent chance of showers and thunderstorms. Highs in the upper 80s.

FRIDAY NIGHT
Partly cloudy with a 20 percent chance of showers. Lows in the mid 60s.

SATURDAY
Partly cloudy with a 30 percent chance of showers and thunderstorms. Highs in the upper 80s.

Ag Weather Center, Department of Biosystems & Agricultural Engineering, University of Kentucky